CZ-4B DEB (43661 NORAD) Tracking and Keplerian Element Data

This shows tracking and keplerian element data for the satellite.

Feedback or suggestion? Click here.




ElementValue
Catalog43661
NameCZ-4B DEB
Epoch Orbit247
Epoch Day315.80156495
Epoch Year2018
RAAN321.2218
Inclination99.3509
Eccentricity0.0012763
Argument of Perigee242.3684
Mean Anonmoly117.6232
Mean Motion13.88621585
Decay Rate-9E-08
L11 43661U 18081E 18315.80156495 -.00000009 00000-0 30461-4 0 9992
L22 43661 99.3509 321.2218 0012763 242.3684 117.6232 13.88621585 2476

Live tracking and technical data element details for CZ-4B DEB (NORAD 43661). CZ-4B DEB can be tracked NOW for your location showing map with azimuth and elevation plus other details from your city location.

Track the satellite on the map from your city or location and see movement details for azimuth, elevation, latitude, longitude, range, height, and movement on the map or in text.







IsCatalogInMostPopularTable: catalog: 43661, numindb: 12
Update: records affected: 1



GetName: 43661 CZ-4B DEB

Hit Count: updated at: Tue, 13 Nov 2018 06:25:16 GMT